Temp_Advection
nan nan nan nan nan nan nan nan nan nan nan nan nan nan nan nan nan nan nan nan nan nan nan nan nan nan nan nan nan nan nan nan nan nan nan nan nan nan nan nan nan nan nan nan
nan -0 -0 -0 0 -0 -0 -0 0 -0 -0 -0 -0 -0 0 0 0 0 -0 -0 -1 -1 -1 -0 -0 -0 0 0 -0 0 0 0 -0 -0 0 0 1 1 1 0 0 0 0 nan
nan -0 -0 0 0 0 -0 -0 -0 -0 -0 -0 -0 -0 -0 -0 -0 0 0 1 0 -1 -1 -0 -0 -0 0 0 -0 0 0 0 1 1 1 1 0 1 0 0 0 0 0 nan
nan -0 0 -0 0 -0 -0 -1 -0 0 -0 -0 -0 0 -0 -0 -0 0 0 1 0 -0 0 0 -0 -0 0 -0 -0 0 1 1 1 1 0 -0 0 0 0 0 0 0 0 nan
nan -0 -0 0 -0 0 -0 -0 0 -0 -0 0 -0 -0 0 -0 -0 -1 -1 -1 -0 1 1 0 0 1 0 0 0 1 1 1 1 1 0 0 0 0 1 1 1 0 0 nan
nan -0 -0 -0 -0 -0 0 -0 -1 -0 -0 -0 -0 -0 -0 -0 -0 -0 -0 -1 -1 0 1 0 1 1 0 0 1 0 0 1 0 0 0 0 1 1 1 0 0 0 0 nan
nan 0 -0 -0 -0 -0 -0 -1 -0 0 -0 -0 -0 0 -0 -0 -0 -0 -1 -1 -1 1 1 0 0 1 1 1 1 0 0 0 0 -0 0 0 1 1 1 1 0 0 1 nan
nan -0 -0 0 -0 -0 0 -0 -0 0 0 -0 -0 -0 -1 -0 -0 -1 0 0 1 1 -0 0 0 0 1 1 0 0 0 0 0 -0 0 1 1 1 1 0 0 1 1 nan
nan -0 -0 -0 0 -0 0 -0 -0 -1 0 -0 -0 -0 -0 -0 0 0 1 1 0 -0 -0 0 1 1 1 0 -0 1 1 0 -0 0 1 1 1 1 0 0 1 1 0 nan
nan -0 -0 -0 -0 -0 -0 -0 -0 0 0 -0 -0 -0 -0 -0 0 0 0 0 0 0 0 1 1 1 0 0 0 0 0 0 0 1 0 0 0 0 0 0 0 0 0 nan
nan 0 -0 -0 0 0 0 0 -0 -0 -0 0 0 -0 -0 0 0 0 -0 -1 -0 -0 -0 -0 -0 -0 -0 -0 -0 -0 0 0 0 1 1 1 0 0 0 1 1 0 0 nan
nan -0 0 -0 -0 0 -0 0 -0 0 0 -0 0 -1 -0 0 -0 -1 -0 -0 -1 -0 -0 0 0 -0 -0 -0 0 0 0 0 1 1 1 1 1 1 1 1 1 0 0 nan
nan -0 0 -0 -0 -0 -0 -0 -0 -1 -0 -0 -0 -1 -0 -0 -0 -0 0 -1 -0 0 1 1 0 -0 0 0 1 1 1 1 1 1 1 1 1 1 1 1 1 0 0 nan
nan -0 -1 -0 -0 -0 -0 0 -0 -1 -0 -0 -1 -1 -0 0 -0 -1 -0 0 1 1 1 0 0 1 1 2 2 2 2 1 1 1 1 1 1 1 1 1 1 0 0 nan
nan 0 -0 -0 -0 0 0 -0 0 -0 -1 -0 -1 -0 -1 -0 -0 -1 0 0 0 1 0 -0 0 1 2 2 2 2 1 1 1 1 1 1 1 1 1 1 1 1 0 nan
nan 0 0 0 -0 0 0 0 0 -0 -0 -0 -0 -0 -0 -0 -0 0 0 0 0 0 0 0 1 1 1 0 1 1 0 1 1 1 1 1 1 1 1 1 1 1 0 nan
nan -0 0 0 -0 -0 -0 -0 -0 -0 0 0 0 0 -0 -0 0 1 1 0 -0 -0 -0 -0 0 0 0 1 1 1 1 2 2 2 1 1 1 2 1 1 1 0 -0 nan
nan -0 -0 0 -0 0 -1 -0 0 -0 -0 -0 -0 -0 -0 0 1 1 0 0 0 0 -0 -0 -0 -0 0 0 1 1 2 2 2 2 2 2 2 2 2 1 0 0 0 nan
nan -0 0 0 -0 -1 -1 -0 -0 -0 -0 0 -0 0 0 0 0 -1 0 0 0 0 0 -0 -0 0 0 0 1 2 2 2 3 3 3 2 2 1 0 -0 -0 0 -0 nan
nan -0 -0 0 0 0 -1 -0 -0 -1 0 -0 -0 0 0 -0 -0 -0 1 0 -0 -0 -0 -0 -0 -0 0 1 1 2 3 3 4 3 2 0 0 0 -0 -0 0 0 -0 nan
nan -0 0 -0 0 -1 -1 -1 -0 -1 -0 0 -0 -0 -0 -0 -0 -0 0 0 0 0 0 -0 -0 -0 0 1 2 3 2 1 0 0 0 -0 -0 -0 1 0 -0 0 0 nan
nan -1 -0 0 0 -1 -1 -0 -0 -0 0 0 -0 -0 -1 -0 0 0 0 0 0 0 -0 0 -0 -0 -0 0 1 1 1 1 0 1 0 -0 -0 0 0 -0 -0 0 0 nan
nan -1 -0 -0 -1 -1 -0 0 -1 -1 -1 0 0 0 -0 -1 -0 0 0 0 0 0 -0 -0 -0 -0 -0 -0 -0 0 0 0 0 0 0 0 -0 -0 -0 0 0 0 0 nan
nan -1 -0 0 0 0 1 1 1 1 1 0 1 1 0 -0 0 0 0 0 -0 -0 -0 -0 -0 -0 -0 -0 -0 -0 -0 -0 -0 -0 -0 -0 -0 0 0 0 0 0 0 nan
nan 0 -0 -0 0 0 1 2 2 1 1 1 0 1 1 0 0 0 -0 0 0 -0 -0 -0 -0 -0 -0 -0 -0 -0 -0 -0 -0 -0 -0 -0 -0 -0 -0 0 0 0 0 nan
nan nan nan nan nan nan nan nan nan nan nan nan nan nan nan nan nan nan nan nan nan nan nan nan nan nan nan nan nan nan nan nan nan nan nan nan nan nan nan nan nan nan nan nan
Wind_Speed
2 4 3 6 6 5 4 9 6 5 10 5 8 7 10 19 19 21 19 16 30 39 38 30 30 31 29 30 33 31 30 31 30 31 30 28 26 20 13 11 11 11 8 5
4 4 6 4 2 4 2 10 8 11 8 5 8 6 9 12 20 29 26 22 27 34 37 37 34 36 34 30 30 30 30 31 30 26 25 27 26 20 13 13 11 9 9 10
5 6 5 1 8 5 6 6 4 3 4 7 6 4 4 7 8 17 24 33 33 38 38 35 36 36 36 34 31 30 29 26 26 24 26 27 21 19 19 17 14 14 15 12
4 2 2 2 3 4 5 9 3 4 4 1 2 2 7 10 12 11 25 32 33 41 40 36 33 35 38 38 30 25 25 27 27 26 29 31 28 28 25 19 19 19 16 12
8 2 3 4 6 3 7 2 3 2 4 2 5 3 6 5 11 14 23 32 42 42 42 41 39 36 32 31 29 21 25 26 26 29 30 26 26 23 23 24 21 17 14 13
7 2 5 5 3 4 5 4 7 4 3 3 5 4 5 5 11 16 20 34 40 40 36 40 35 28 27 24 23 19 22 28 31 30 29 28 27 28 29 26 21 16 15 17
3 1 3 3 4 7 4 5 3 4 4 5 3 3 8 8 10 8 14 20 36 38 36 40 34 30 28 27 22 17 22 29 29 28 27 27 30 31 27 24 20 19 19 17
4 2 3 2 3 1 6 7 5 3 3 3 3 6 6 5 16 21 18 15 23 33 39 39 35 32 31 27 27 24 25 26 25 28 28 26 25 23 22 21 19 17 14 13
4 4 5 3 3 5 7 2 4 7 3 2 4 6 7 5 4 6 8 13 20 30 38 38 35 35 28 27 29 26 25 28 30 27 25 24 24 23 21 19 17 13 11 12
7 1 2 6 3 6 7 3 2 3 4 3 4 5 4 2 1 3 5 15 23 30 34 36 36 30 28 28 27 27 27 30 29 26 23 22 22 21 18 16 14 13 13 11
5 4 4 4 3 6 1 2 1 4 4 4 1 5 5 6 6 8 13 22 27 36 38 37 35 33 30 30 28 28 30 30 31 30 28 26 24 22 18 18 16 12 11 16
8 6 4 10 15 4 4 7 6 5 4 0 4 5 4 8 7 11 17 21 28 37 38 37 35 33 32 32 31 32 32 32 31 31 30 26 24 23 20 18 15 12 13 13
7 1 2 6 5 3 7 6 4 5 4 6 5 5 4 5 7 12 15 24 32 40 41 40 39 37 38 38 37 37 36 34 31 31 30 27 25 23 20 17 14 14 13 13
13 4 7 7 7 3 2 3 4 5 3 4 6 5 6 9 9 12 12 17 31 39 40 40 40 42 43 43 42 40 37 32 31 32 32 29 25 21 17 15 16 15 13 12
6 5 4 5 3 2 1 2 2 5 5 6 8 8 10 6 8 18 15 7 9 26 31 36 39 42 43 43 42 40 33 32 32 34 32 29 23 17 14 18 19 16 11 12
2 4 1 3 2 2 2 5 5 5 3 5 5 6 4 7 11 13 6 9 13 11 7 12 32 37 39 40 40 36 33 34 34 35 33 26 20 18 22 23 19 10 8 6
4 6 4 4 4 4 5 7 6 5 3 4 5 4 5 6 9 10 12 10 9 12 12 9 4 8 23 33 35 35 34 35 35 33 28 26 23 25 28 24 18 9 9 16
6 5 3 3 3 2 7 5 4 8 5 6 8 5 11 15 20 20 16 19 16 13 10 8 5 2 5 13 22 28 32 34 34 32 31 27 28 30 26 21 11 8 11 14
2 5 2 4 3 4 5 3 5 5 1 3 6 6 14 19 20 14 15 14 13 9 6 3 3 5 6 12 20 28 31 32 32 31 27 25 22 18 6 4 12 13 9 20
6 5 4 2 4 6 7 4 3 6 2 5 9 5 7 7 3 3 7 5 4 4 3 3 5 7 10 13 20 26 28 31 30 26 23 17 12 4 7 18 16 10 18 20
3 3 5 2 2 7 8 7 3 5 6 9 15 14 7 4 5 6 10 7 5 4 4 3 3 7 6 9 16 22 25 26 21 17 11 11 13 17 23 6 13 17 19 20
7 6 3 3 2 6 8 4 7 7 12 17 13 12 16 16 14 14 11 9 7 6 7 6 4 7 7 8 11 14 16 14 13 19 20 18 25 17 6 14 17 17 17 19
1 6 6 8 6 6 9 6 21 20 18 14 18 16 14 13 14 14 14 12 10 9 9 9 9 10 9 6 3 1 3 7 10 15 13 7 6 11 15 16 16 16 16 18
2 6 4 4 2 2 9 16 18 21 20 20 17 16 10 14 15 14 12 11 10 10 10 10 9 9 7 4 2 2 3 4 5 5 7 11 13 15 15 16 16 18 18 19
6 8 6 3 2 18 14 20 23 24 22 20 18 15 14 14 16 14 14 13 11 10 9 7 8 9 9 8 8 8 7 7 9 11 13 15 16 17 18 18 19 20 21 21
7 7 5 5 17 9 8 17 20 22 18 16 14 17 15 13 16 13 14 12 10 10 11 10 11 10 10 8 8 9 11 12 13 15 16 17 18 19 21 23 25 23 24 25
Wind_Direction
313 61 240 236 214 254 359 326 277 265 251 138 195 161 180 186 191 187 174 170 174 177 181 181 184 188 189 184 187 191 195 196 198 201 205 210 212 221 238 219 200 205 207 227
31 248 252 306 342 351 336 252 294 288 222 123 152 180 176 186 199 189 183 183 193 182 176 183 190 193 197 194 194 198 200 199 201 206 213 214 214 229 231 210 214 226 230 233
162 225 231 122 283 343 304 244 250 265 62 37 97 53 189 241 284 215 201 195 191 187 181 182 190 198 201 200 203 205 206 208 207 204 211 207 217 214 202 208 218 223 236 254
233 240 161 351 294 203 260 249 270 273 71 140 117 199 194 209 227 219 218 205 196 190 191 185 187 194 201 203 208 223 209 209 209 214 197 205 206 199 206 215 217 224 234 246
246 199 135 267 236 300 230 172 208 342 76 86 349 84 252 195 189 217 224 220 208 205 198 192 196 199 197 206 213 214 212 211 210 195 198 203 208 210 212 214 220 227 239 255
231 186 165 217 303 260 307 40 32 48 74 47 290 126 291 227 222 191 211 215 215 216 204 200 198 198 206 208 217 197 207 210 200 199 203 209 216 212 208 212 219 229 237 252
235 210 289 79 332 2 82 63 353 354 16 211 267 144 233 234 254 233 210 197 214 208 204 197 193 201 200 211 196 196 201 191 201 215 206 209 213 216 219 218 217 227 242 258
169 29 324 81 111 347 278 152 156 226 204 267 284 223 247 261 262 230 236 175 189 194 199 191 196 201 208 198 186 197 201 211 204 201 208 210 213 210 207 214 223 242 259 275
157 222 296 238 135 106 307 246 177 105 358 12 249 284 315 10 358 177 130 146 173 185 190 192 196 203 214 199 202 206 207 210 206 209 210 205 205 211 219 229 242 251 269 287
203 21 227 288 235 168 171 193 68 18 137 240 282 296 250 326 268 244 167 176 181 183 185 192 196 202 202 202 200 198 206 213 218 223 221 218 217 220 230 241 257 267 281 289
129 121 297 297 200 213 47 248 128 122 140 170 178 275 231 220 217 222 235 223 188 184 189 193 199 203 205 203 210 216 217 222 230 235 234 234 231 232 242 255 255 263 287 295
196 144 169 209 223 313 214 228 146 121 229 123 150 264 239 224 208 219 238 223 200 199 200 207 210 209 210 216 220 223 225 229 233 236 238 233 233 236 245 250 253 271 279 299
176 183 68 343 321 273 209 195 179 111 88 193 141 259 289 268 264 204 214 214 212 208 208 208 207 213 219 221 223 225 226 226 228 233 235 229 229 236 246 249 263 263 276 289
149 136 162 188 206 187 240 228 157 130 113 184 214 242 269 260 240 233 203 207 220 215 214 212 213 217 220 222 221 220 220 225 230 229 229 230 231 239 248 248 239 246 254 282
140 168 156 195 196 173 180 305 259 170 193 160 241 207 244 230 239 220 208 165 197 221 222 219 220 221 222 221 219 220 221 228 230 229 227 229 233 241 230 223 226 233 251 289
38 190 176 207 73 63 218 263 265 264 206 231 256 255 301 65 75 70 185 156 127 130 166 229 240 233 229 226 224 221 226 228 232 227 229 228 227 222 216 217 211 208 227 292
124 135 116 234 6 9 351 233 216 234 222 184 210 233 118 56 61 63 86 109 90 84 78 81 128 238 242 237 231 228 234 236 229 224 222 221 219 216 200 201 208 226 294 302
133 106 102 187 39 26 240 283 218 105 35 86 99 94 106 109 91 89 91 99 94 88 81 70 51 42 240 247 244 242 240 228 222 217 216 215 202 194 198 207 217 307 302 285
114 121 101 136 186 293 298 240 176 140 31 334 122 119 128 115 97 79 80 83 90 94 94 80 320 293 259 241 239 230 221 213 207 200 193 180 185 186 172 1 330 290 276 274
67 68 117 132 140 201 238 248 157 107 139 188 132 125 143 155 84 247 88 87 72 65 58 325 307 289 267 239 230 223 210 200 189 178 169 160 136 116 322 312 292 266 272 290
45 19 143 114 192 286 246 243 111 109 223 150 120 120 120 111 137 134 160 133 110 101 100 76 343 311 276 218 215 207 185 173 160 152 158 215 252 299 293 286 267 283 295 292
157 141 179 104 75 274 200 133 158 187 136 131 122 123 109 113 121 127 131 130 124 107 103 94 95 105 120 138 173 163 179 190 217 233 243 271 285 285 267 278 287 290 294 297
165 177 177 174 211 228 185 173 143 144 141 140 137 141 147 133 133 139 137 136 128 119 108 100 94 101 109 115 103 114 228 258 273 282 279 281 300 297 289 285 287 290 291 295
259 157 134 99 336 116 129 150 156 160 153 149 147 152 165 148 149 148 145 134 120 105 97 92 93 96 97 92 82 18 345 5 10 355 328 310 301 296 293 290 290 290 293 292
194 144 155 96 61 88 111 134 145 142 143 143 141 144 144 149 144 145 130 121 115 108 97 86 76 77 75 64 58 51 30 354 333 321 314 309 304 300 297 295 294 291 290 287
181 168 151 211 185 134 150 147 151 142 136 134 141 130 127 140 136 134 122 116 110 102 92 83 79 75 70 55 27 2 348 338 331 325 323 320 315 308 304 300 298 289 288 285
Height
1504 1510 1514 1507 1505 1502 1501 1507 1509 1502 1493 1499 1503 1509 1506 1508 1511 1511 1513 1515 1519 1521 1525 1528 1530 1533 1535 1538 1540 1542 1544 1548 1550 1553 1555 1557 1558 1559 1561 1561 1562 1562 1563 1564
1510 1513 1503 1500 1499 1504 1509 1510 1505 1495 1487 1494 1506 1509 1507 1509 1507 1505 1508 1513 1517 1520 1523 1525 1527 1529 1532 1536 1539 1541 1542 1545 1547 1550 1552 1555 1556 1559 1559 1560 1561 1562 1562 1563
1509 1503 1499 1501 1502 1508 1507 1504 1501 1499 1489 1493 1502 1516 1517 1512 1510 1508 1507 1507 1510 1511 1514 1519 1522 1525 1529 1533 1534 1538 1541 1543 1546 1548 1551 1553 1554 1556 1556 1558 1559 1559 1559 1561
1502 1496 1498 1500 1504 1504 1512 1491 1493 1492 1501 1514 1502 1530 1514 1509 1509 1508 1504 1505 1507 1509 1511 1514 1516 1520 1522 1526 1533 1535 1539 1540 1544 1545 1546 1547 1547 1549 1553 1556 1556 1557 1559 1560
1503 1497 1501 1502 1500 1494 1498 1490 1493 1492 1504 1505 1506 1517 1509 1502 1506 1504 1501 1498 1499 1503 1504 1508 1510 1514 1522 1525 1527 1531 1535 1538 1541 1542 1544 1544 1546 1549 1552 1553 1553 1555 1557 1557
1496 1494 1493 1495 1492 1492 1491 1491 1498 1504 1511 1538 1518 1521 1518 1506 1492 1489 1491 1494 1497 1501 1504 1508 1511 1517 1522 1525 1528 1530 1533 1536 1539 1541 1542 1542 1544 1546 1548 1550 1553 1554 1555 1555
1496 1494 1489 1491 1495 1490 1490 1506 1527 1530 1545 1544 1516 1520 1510 1490 1485 1482 1482 1488 1491 1496 1501 1506 1510 1514 1519 1519 1523 1526 1531 1534 1537 1538 1539 1542 1544 1546 1548 1550 1551 1551 1551 1551
1508 1515 1495 1490 1496 1502 1502 1504 1533 1530 1548 1528 1513 1518 1497 1478 1477 1476 1480 1486 1487 1491 1498 1503 1507 1512 1514 1515 1520 1523 1526 1532 1534 1537 1539 1542 1544 1546 1547 1549 1550 1549 1549 1548
1508 1506 1495 1491 1490 1497 1503 1507 1500 1527 1535 1536 1520 1499 1483 1479 1478 1477 1482 1485 1488 1490 1495 1500 1505 1509 1510 1514 1518 1521 1523 1529 1532 1535 1538 1540 1543 1545 1546 1547 1546 1545 1546 1544
1496 1507 1497 1492 1489 1488 1497 1494 1511 1521 1532 1535 1517 1510 1501 1483 1479 1479 1483 1485 1487 1490 1494 1499 1503 1506 1509 1512 1515 1518 1522 1525 1529 1532 1534 1537 1539 1541 1542 1542 1542 1542 1541 1541
1490 1499 1505 1496 1491 1492 1494 1498 1498 1506 1523 1530 1538 1518 1487 1483 1480 1479 1476 1478 1483 1486 1490 1494 1498 1501 1505 1508 1510 1514 1517 1520 1523 1526 1528 1531 1533 1535 1536 1536 1536 1537 1537 1538
1482 1495 1518 1497 1480 1480 1487 1492 1497 1528 1515 1530 1534 1515 1480 1479 1476 1477 1477 1477 1480 1483 1486 1489 1491 1495 1499 1503 1504 1507 1510 1513 1516 1518 1522 1525 1527 1529 1530 1530 1530 1531 1532 1532
1478 1495 1518 1507 1495 1487 1486 1483 1486 1496 1512 1516 1534 1515 1476 1477 1477 1475 1475 1476 1477 1479 1482 1485 1488 1490 1493 1496 1498 1499 1502 1505 1510 1514 1516 1519 1521 1522 1523 1524 1525 1525 1527 1528
1469 1484 1495 1512 1496 1486 1485 1479 1482 1491 1519 1512 1514 1493 1481 1477 1476 1472 1472 1472 1473 1476 1479 1482 1484 1486 1488 1490 1492 1495 1498 1503 1507 1508 1511 1513 1516 1517 1518 1519 1520 1521 1522 1522
1471 1483 1481 1483 1480 1479 1481 1481 1477 1485 1488 1502 1491 1491 1476 1470 1467 1466 1469 1471 1472 1474 1477 1480 1481 1483 1486 1489 1492 1494 1499 1501 1502 1505 1506 1508 1511 1513 1514 1515 1516 1517 1517 1517
1467 1484 1481 1483 1484 1482 1481 1480 1480 1479 1476 1481 1481 1481 1470 1471 1469 1468 1469 1472 1473 1475 1477 1479 1480 1482 1483 1484 1488 1493 1495 1497 1499 1500 1502 1505 1507 1508 1509 1510 1511 1511 1511 1513
1474 1486 1496 1494 1492 1488 1502 1483 1476 1473 1471 1472 1482 1476 1472 1474 1474 1474 1473 1474 1475 1478 1478 1479 1479 1479 1481 1483 1486 1489 1491 1493 1495 1498 1500 1500 1501 1502 1502 1502 1502 1504 1507 1510
1474 1482 1496 1505 1501 1513 1478 1468 1467 1473 1475 1472 1474 1477 1474 1476 1478 1479 1480 1479 1481 1481 1481 1481 1481 1481 1482 1484 1485 1487 1488 1490 1493 1495 1494 1495 1495 1495 1494 1494 1495 1500 1504 1505
1464 1480 1497 1505 1507 1491 1473 1467 1469 1470 1482 1476 1476 1477 1476 1477 1478 1482 1483 1482 1482 1482 1482 1481 1481 1480 1481 1482 1482 1483 1485 1488 1490 1492 1494 1495 1495 1494 1497 1496 1495 1496 1498 1499
1470 1475 1487 1505 1505 1509 1477 1463 1462 1463 1492 1476 1474 1475 1476 1477 1492 1485 1483 1482 1482 1482 1481 1481 1480 1480 1479 1479 1478 1479 1481 1483 1486 1488 1490 1491 1492 1493 1494 1494 1494 1495 1492 1493
1488 1491 1497 1515 1510 1491 1465 1461 1462 1482 1486 1472 1473 1474 1474 1476 1478 1480 1480 1480 1480 1480 1480 1480 1480 1479 1479 1478 1478 1478 1480 1482 1485 1486 1489 1490 1493 1493 1492 1492 1492 1491 1488 1487
1475 1490 1501 1498 1506 1489 1456 1460 1469 1466 1466 1468 1470 1472 1473 1475 1476 1478 1478 1478 1479 1479 1479 1480 1480 1480 1481 1482 1483 1482 1484 1488 1490 1490 1491 1491 1491 1489 1488 1489 1489 1486 1484 1482
1467 1463 1475 1475 1473 1454 1454 1454 1456 1460 1462 1466 1467 1470 1471 1473 1475 1476 1477 1478 1479 1479 1480 1481 1482 1482 1485 1486 1487 1488 1489 1490 1490 1489 1488 1488 1489 1488 1487 1485 1483 1481 1479 1476
1449 1449 1459 1461 1454 1453 1454 1455 1456 1458 1459 1463 1465 1466 1469 1470 1473 1475 1476 1478 1480 1481 1482 1483 1484 1483 1484 1486 1487 1488 1488 1489 1489 1488 1488 1487 1485 1484 1482 1480 1477 1475 1474 1472
1442 1444 1449 1457 1457 1454 1456 1455 1456 1458 1459 1461 1463 1465 1467 1469 1473 1475 1477 1479 1481 1482 1483 1484 1485 1485 1486 1487 1488 1488 1489 1488 1488 1487 1485 1484 1482 1479 1477 1475 1472 1470 1468 1466
1433 1438 1449 1453 1444 1447 1456 1458 1458 1457 1460 1462 1463 1465 1468 1471 1472 1476 1478 1480 1482 1483 1485 1486 1487 1487 1488 1488 1488 1488 1487 1486 1485 1483 1482 1480 1478 1476 1473 1469 1466 1465 1461 1459